TimePST,TemperatureF,Dew PointF,Humidity,Sea Level PressureIn,VisibilityMPH,Wind Direction,Wind SpeedMPH,Gust SpeedMPH,PrecipitationIn,Events,Conditions,WindDirDegrees,DateUTC
12:53 AM,28.0,27.0,96,30.39,10.0,Calm,Calm,-,N/A,,Clear,0,2013-01-02 08:53:00
1:53 AM,28.0,26.1,92,30.38,10.0,Calm,Calm,-,N/A,,Clear,0,2013-01-02 09:53:00
2:53 AM,30.9,25.0,79,30.38,10.0,NNE,5.8,-,N/A,,Clear,20,2013-01-02 10:53:00
3:53 AM,28.4,26.6,93,30.33,10.0,Calm,Calm,-,N/A,,Clear,0,2013-01-02 11:53:00
4:53 AM,30.0,25.0,82,30.35,10.0,NNE,4.6,-,N/A,,Clear,20,2013-01-02 12:53:00
5:53 AM,30.9,26.1,82,30.34,10.0,Calm,Calm,-,N/A,,Clear,0,2013-01-02 13:53:00
6:53 AM,30.2,24.8,80,30.30,10.0,Calm,Calm,-,N/A,,Clear,0,2013-01-02 14:53:00
7:53 AM,28.0,24.1,85,30.33,10.0,NNE,3.5,-,N/A,,Clear,20,2013-01-02 15:53:00
8:53 AM,30.0,26.1,85,30.35,10.0,Calm,Calm,-,N/A,,Clear,0,2013-01-02 16:53:00
9:53 AM,34.0,30.0,85,30.35,10.0,NNE,4.6,-,N/A,,Clear,30,2013-01-02 17:53:00
10:53 AM,37.9,32.0,79,30.34,10.0,North,4.6,-,N/A,,Clear,360,2013-01-02 18:53:00
11:53 AM,41.0,30.9,67,30.31,10.0,Calm,Calm,-,N/A,,Clear,0,2013-01-02 19:53:00
12:53 PM,42.1,28.9,60,30.30,10.0,North,5.8,-,N/A,,Clear,350,2013-01-02 20:53:00
1:53 PM,44.1,30.9,60,30.29,10.0,Calm,Calm,-,N/A,,Clear,0,2013-01-02 21:53:00
2:53 PM,43.0,30.0,60,30.29,10.0,Calm,Calm,-,N/A,,Clear,0,2013-01-02 22:53:00
3:53 PM,37.9,27.0,65,30.30,10.0,North,5.8,-,N/A,,Clear,10,2013-01-02 23:53:00
4:53 PM,35.1,26.1,70,30.29,10.0,North,3.5,-,N/A,,Clear,10,2013-01-03 00:53:00
5:53 PM,32.0,26.1,79,30.28,10.0,Calm,Calm,-,N/A,,Clear,0,2013-01-03 01:53:00
6:53 PM,30.9,26.1,82,30.27,10.0,North,4.6,-,N/A,,Clear,360,2013-01-03 02:53:00
7:53 PM,32.0,26.1,79,30.26,10.0,Calm,Calm,-,N/A,,Clear,0,2013-01-03 03:53:00
8:53 PM,28.9,26.1,89,30.25,10.0,North,4.6,-,N/A,,Clear,350,2013-01-03 04:53:00
9:53 PM,30.0,27.0,88,30.25,10.0,Calm,Calm,-,N/A,,Clear,0,2013-01-03 05:53:00
10:53 PM,28.0,25.0,88,30.25,10.0,Calm,Calm,-,N/A,,Clear,0,2013-01-03 06:53:00
11:53 PM,28.0,25.0,88,30.24,10.0,NNW,4.6,-,N/A,,Clear,340,2013-01-03 07:53:00